Waarnemingen

Advertentie
Mijn weer
Saint-Brieuc, Frankrijk (7120): temperatuur & dauwpunt: 11.12.2017 08:00:00 - 17.12.2017 08:00:00 (CET)Saint-Brieuc, Frankrijk (7120): temperatuur 5cm: 11.12.2017 08:00:00 - 17.12.2017 08:00:00 (CET)Saint-Brieuc, Frankrijk (7120): temperatuur -20cm & temperatuur -100cm: 11.12.2017 08:00:00 - 17.12.2017 08:00:00 (CET)Saint-Brieuc, Frankrijk (7120): windsnelheid & windstoten: 11.12.2017 08:00:00 - 17.12.2017 08:00:00 (CET)Saint-Brieuc, Frankrijk (7120): windrichting: 11.12.2017 08:00:00 - 17.12.2017 08:00:00 (CET)Saint-Brieuc, Frankrijk (7120): luchtdruk: 11.12.2017 08:00:00 - 17.12.2017 08:00:00 (CET)Saint-Brieuc, Frankrijk (7120): zicht: 11.12.2017 08:00:00 - 17.12.2017 08:00:00 (CET)Saint-Brieuc, Frankrijk (7120): Zonneschijnduur: 11.12.2017 08:00:00 - 17.12.2017 08:00:00 (CET)Saint-Brieuc, Frankrijk (7120): neerslag: 11.12.2017 08:00:00 - 17.12.2017 08:00:00 (CET)
Datum & Tijd tt [°C] td [°C] tt 5cm [°C] tt -20cm [°C] tt -100cm [°C] ff [km/u] ff [kn] fx [km/u] fx [kn] dd ppp [hPa] vv [km] sd [min] rr [mm]
17.12.2017 08:00:00 6,7 6,4 6,2 6,2 9,3 8 4 18 10 WNW 1027,5 6 0 0,6
17.12.2017 07:00:00 6,5 6,2 6,1 6,2 9,3 6 4 14 8 W 1027,3 11 0 0,6
17.12.2017 06:00:00 6,8 6,5 6,2 6,1 9,3 10 5 17 9 WNW 1027,1 10 0 1,6
17.12.2017 05:00:00 6,6 6,3 6,1 6,1 9,3 9 5 17 9 NW 1027,1 18 0 0,2
17.12.2017 04:00:00 6,8 6,4 6,4 6,0 9,4 11 6 20 11 NW 1027,0 11 0 3,3
17.12.2017 03:00:00 6,8 6,4 6,2 6,0 9,4 13 7 24 13 NW 1026,7 7 0 1,6
17.12.2017 02:00:00 6,7 6,3 5,8 6,0 9,4 16 8 22 12 WNW 1026,3 8 0 1,6
17.12.2017 01:00:00 6,3 5,7 5,4 6,0 9,4 11 6 24 13 NNW 1026,6 6 0 1,4
17.12.2017 00:00:00 6,1 5,4 5,1 6,0 9,4 18 10 27 15 WNW 1026,3 20 0 0,6
16.12.2017 23:00:00 6,0 4,5 5,0 6,0 9,4 18 10 30 16 WNW 1026,1 10 0 0,0
16.12.2017 22:00:00 6,2 3,4 5,1 6,0 9,4 22 12 33 18 WNW 1025,7 10 0 0,0
16.12.2017 21:00:00 6,0 3,0 4,5 6,0 9,4 19 10 28 15 WNW 1025,9 20 0 0,0
16.12.2017 20:00:00 5,3 2,5 4,5 6,0 9,4 15 8 21 11 WNW 1025,9 10 0 0,0
16.12.2017 19:00:00 5,5 2,5 2,4 6,0 9,4 15 8 19 10 WNW 1025,7 20 0 0,0
16.12.2017 18:00:00 4,3 1,7 2,0 6,0 9,4 8 5 13 7 WNW 1025,5 20 0 0,0
16.12.2017 17:00:00 5,8 1,9 4,3 5,9 9,4 11 6 16 8 NW 1024,8 20 39 0,0
16.12.2017 16:00:00 6,7 2,0 6,6 5,9 9,4 11 6 18 10 NNW 1024,2 10 28 0,0
16.12.2017 15:00:00 7,6 1,9 7,1 5,8 9,4 12 7 25 13 N 1023,6 20 28 0,0
16.12.2017 14:00:00 7,4 1,7 6,8 5,7 9,4 15 8 34 19 N 1023,1 10 32 0,0
16.12.2017 13:00:00 7,6 3,1 5,6 5,6 9,4 15 8 27 15 N 1022,7 10 44 0,0
16.12.2017 12:00:00 6,4 3,7 6,5 5,6 9,4 13 7 22 12 NW 1022,8 10 57 0,0
16.12.2017 11:00:00 4,6 2,6 2,0 5,7 9,4 9 5 18 10 NW 1022,1 10 37 0,0
16.12.2017 10:00:00 2,9 1,7 -0,1 5,7 9,4 13 7 24 13 WNW 1021,2 20 11 0,0
16.12.2017 09:00:00 1,4 -0,4 -0,9 5,8 9,4 12 7 15 8 W 1020,4 20 0 0,0
16.12.2017 08:00:00 2,1 0,0 -0,5 5,9 9,4 11 6 16 9 NW 1019,6 20 0 0,0
16.12.2017 07:00:00 2,4 0,3 0,3 6,0 9,4 10 6 19 10 NW 1018,7 20 0 0,0
16.12.2017 06:00:00 2,7 0,9 0,5 6,0 9,5 12 7 20 11 NNW 1018,0 20 0 0,0
16.12.2017 05:00:00 3,1 1,5 0,7 6,1 9,5 6 3 21 12 NNW 1017,7 20 0 0,0
16.12.2017 04:00:00 3,6 2,4 1,7 6,1 9,4 14 7 20 11 NW 1016,9 20 0 0,0
16.12.2017 03:00:00 4,3 3,3 2,9 6,1 9,5 9 5 29 16 NW 1016,0 20 0 0,0
16.12.2017 02:00:00 4,4 3,1 2,6 6,1 9,5 8 4 35 19 NNW 1015,1 20 0 1,4
16.12.2017 01:00:00 4,8 3,3 3,4 6,1 9,5 9 5 18 10 NW 1014,7 20 0 0,0
16.12.2017 00:00:00 5,5 4,0 2,9 6,2 9,5 14 7 21 11 NNW 1014,0 20 0 0,0
15.12.2017 23:00:00 3,8 2,6 1,2 6,3 9,5 15 8 20 11 NW 1013,1 10 0 0,0
15.12.2017 22:00:00 3,7 2,2 1,5 6,3 9,5 10 5 16 9 NNW 1012,3 20 0 0,0
15.12.2017 21:00:00 3,9 2,6 2,4 6,4 9,5 12 7 23 13 NNW 1011,4 20 0 0,0
15.12.2017 20:00:00 5,1 4,1 2,7 6,4 9,5 15 8 21 11 NW 1010,2 10 0 0,0
15.12.2017 19:00:00 4,8 3,3 3,2 6,4 9,5 13 7 24 13 NNW 1009,0 20 0 0,0
15.12.2017 18:00:00 5,2 3,5 4,0 6,4 9,5 13 7 29 15 N 1008,0 7 0 0,8
15.12.2017 17:00:00 4,9 2,8 3,4 6,3 9,5 11 6 59 32 NNW 1007,1 10 0 0,8
15.12.2017 16:00:00 7,8 1,8 6,7 6,3 9,5 18 10 39 21 N 1005,8 20 43 0,0
15.12.2017 15:00:00 7,6 0,6 7,4 6,2 9,5 23 13 43 23 N 1005,4 20 45 0,0
15.12.2017 14:00:00 7,8 1,8 8,4 6,1 9,5 28 15 46 25 N 1004,8 10 56 0,0
15.12.2017 13:00:00 7,6 3,3 7,1 6,0 9,5 26 14 50 27 N 1004,1 10 24 0,0
15.12.2017 12:00:00 8,0 4,2 6,6 6,0 9,5 28 15 53 29 N 1003,0 10 32 0,0
15.12.2017 11:00:00 7,4 5,0 4,8 5,9 9,5 21 11 48 26 NNW 1001,8 10 16 0,8
15.12.2017 10:00:00 6,1 3,9 4,8 6,0 9,5 29 16 50 27 NW 1000,9 15 4 0,4
15.12.2017 09:00:00 5,6 4,4 4,1 6,0 9,5 22 12 45 24 WNW 1000,2 10 0 0,0
15.12.2017 08:00:00 5,0 4,0 3,9 6,0 9,5 18 10 41 22 W 1000,1 10 0 0,6
15.12.2017 07:00:00 5,1 3,8 3,3 6,0 9,5 30 16 45 25 WNW 1000,0 13 0 0,2
15.12.2017 06:00:00 4,7 2,7 3,1 6,0 9,5 21 12 36 20 W 999,7 20 0 0,0
15.12.2017 05:00:00 4,6 2,6 3,1 6,0 9,5 20 11 31 17 W 999,7 20 0 0,2
15.12.2017 04:00:00 5,4 3,7 3,9 6,0 9,5 28 15 42 23 WNW 1000,0 10 0 0,2
15.12.2017 03:00:00 5,6 3,8 3,8 6,0 9,5 31 17 50 27 WNW 999,5 16 0 0,0
15.12.2017 02:00:00 5,0 2,9 3,7 6,0 9,5 18 10 49 27 WNW 999,4 20 0 0,0
15.12.2017 01:00:00 5,4 3,2 4,6 6,0 9,5 16 8 42 23 WNW 999,1 20 0 0,0
15.12.2017 00:00:00 5,2 3,2 4,0 6,0 9,5 21 12 47 26 W 998,7 20 0 0,0
14.12.2017 23:00:00 5,4 3,7 4,0 6,0 9,5 31 17 56 30 WNW 997,9 10 0 0,2
14.12.2017 22:00:00 4,8 3,6 4,0 6,0 9,6 38 20 61 33 W 997,1 6 0 0,2
14.12.2017 21:00:00 5,0 2,4 3,3 6,2 9,6 37 20 58 31 W 996,4 10 0 0,0
14.12.2017 20:00:00 4,0 2,0 3,1 6,3 9,5 24 13 52 28 W 997,0 10 0 0,0
14.12.2017 19:00:00 4,0 1,7 3,1 6,4 9,5 31 17 52 28 W 997,3 20 0 0,0
14.12.2017 18:00:00 4,6 2,6 2,3 6,6 9,6 41 22 69 37 WNW 997,3 10 0 2,6
14.12.2017 17:00:00 5,2 2,9 3,7 6,7 9,5 26 14 50 27 W 996,9 20 0 0,0
14.12.2017 16:00:00 4,6 2,6 2,0 6,8 9,5 34 18 55 30 W 997,0 10 0 1,6
14.12.2017 15:00:00 3,5 1,0 1,9 6,8 9,5 36 19 80 43 NW 999,3 2,9 15 1,0
14.12.2017 14:00:00 6,3 4,5 5,1 6,8 9,6 22 12 49 27 W 999,1 10 0 0,6
14.12.2017 13:00:00 6,2 3,5 5,0 6,8 9,5 30 16 61 33 W 1000,4 20 0 1,6
14.12.2017 12:00:00 7,1 4,7 6,0 6,8 9,5 24 13 64 35 WNW 1001,6 19 14 0,4
14.12.2017 11:00:00 6,9 4,2 5,9 6,7 9,5 29 16 45 24 W 1001,9 10 33 0,0
14.12.2017 10:00:00 6,1 3,9 4,9 6,8 9,6 25 14 46 25 W 1002,6 20 20 0,0
14.12.2017 09:00:00 5,6 3,6 4,5 6,8 9,5 26 14 51 28 W 1003,1 10 0 0,2
14.12.2017 08:00:00 6,0 3,5 4,7 6,9 9,6 24 13 57 31 W 1003,8 10 0 0,0
14.12.2017 07:00:00 5,8 3,3 4,5 7,0 9,6 27 15 44 24 W 1003,9 20 0 0,0
14.12.2017 06:00:00 5,6 2,6 4,4 7,0 9,6 29 16 51 27 W 1004,6 20 0 0,0
14.12.2017 05:00:00 5,3 2,6 4,3 7,1 9,6 25 14 44 24 W 1005,3 20 0 0,0
14.12.2017 04:00:00 5,3 2,3 3,3 7,2 9,5 26 14 41 22 W 1006,0 20 0 0,0
14.12.2017 03:00:00 5,4 2,7 3,4 7,3 9,6 30 16 57 31 WNW 1006,0 17 0 0,4
14.12.2017 02:00:00 5,8 2,8 3,7 7,4 9,6 20 11 57 31 W 1005,7 15 0 0,4
14.12.2017 01:00:00 6,5 1,4 5,1 7,4 9,6 22 12 52 28 WNW 1005,5 20 0 0,0
14.12.2017 00:00:00 6,7 3,7 5,5 7,5 9,6 23 13 53 29 WNW 1005,2 17 0 0,0
13.12.2017 23:00:00 7,3 4,9 6,1 7,5 9,6 35 19 72 39 NW 1004,3 20 0 0,4
13.12.2017 22:00:00 7,7 5,3 6,2 7,5 9,6 46 25 81 44 WNW 1003,2 5 0 0,8
13.12.2017 21:00:00 8,0 4,2 7,1 7,5 9,6 34 18 54 29 W 1002,1 10 0 0,0
13.12.2017 20:00:00 8,2 5,7 6,5 7,5 9,6 35 19 53 29 WNW 1002,5 10 0 0,0
13.12.2017 19:00:00 8,3 6,1 7,1 7,5 9,6 36 20 72 39 NW 1002,4 20 0 0,2
13.12.2017 18:00:00 9,3 8,2 8,6 7,4 9,6 29 16 53 28 NW 1002,0 5 0 0,6
13.12.2017 17:00:00 9,5 8,1 8,5 7,3 9,6 31 17 61 33 NW 1001,2 10 0 0,2
13.12.2017 16:00:00 10,7 9,9 10,0 7,2 9,6 22 12 34 18 WNW 1000,4 9 0 0,0
13.12.2017 15:00:00 10,3 9,5 9,6 7,1 9,6 18 10 43 23 W 1000,7 5 0 0,2
13.12.2017 14:00:00 9,9 8,8 9,4 7,0 9,6 20 11 44 24 WZW 1001,6 8 0 0,0
13.12.2017 13:00:00 9,5 8,3 9,1 6,9 9,6 18 10 43 23 WZW 1003,6 15 0 0,0
13.12.2017 12:00:00 9,8 7,4 9,6 6,9 9,6 23 12 42 23 WZW 1005,7 20 5 0,0
13.12.2017 11:00:00 9,6 7,2 8,5 6,8 9,6 22 12 46 25 WZW 1006,7 19 19 0,0
13.12.2017 10:00:00 8,9 7,2 7,9 6,8 9,6 16 9 34 18 WZW 1007,4 14 0 0,0
13.12.2017 09:00:00 8,4 6,4 7,7 6,7 9,6 16 9 38 20 W 1008,1 20 0 0,0
13.12.2017 08:00:00 8,2 6,3 7,7 6,7 9,6 23 13 34 18 W 1008,6 20 0 0,0
13.12.2017 07:00:00 8,5 6,8 7,9 6,6 9,6 20 11 32 17 W 1008,1 14 0 0,0
13.12.2017 06:00:00 8,7 6,8 8,0 6,5 9,6 21 12 36 19 W 1008,2 14 0 0,0
13.12.2017 05:00:00 8,9 7,2 8,0 6,5 9,7 25 14 38 20 WNW 1008,3 12 0 0,0
13.12.2017 04:00:00 9,0 7,8 8,2 6,4 9,7 21 11 45 25 WNW 1008,4 17 0 0,2
13.12.2017 03:00:00 9,0 8,4 7,9 6,3 9,7 14 8 42 23 WZW 1008,3 3,6 0 0,2
13.12.2017 02:00:00 8,5 7,7 7,5 6,2 9,7 18 10 45 24 ZW 1008,3 14 0 0,0
13.12.2017 01:00:00 8,4 7,0 7,8 6,1 9,6 24 13 50 27 ZW 1009,3 20 0 0,0
13.12.2017 00:00:00 8,3 5,6 6,6 6,1 9,7 24 13 49 26 ZW 1009,6 20 0 0,0
12.12.2017 23:00:00 7,4 4,9 6,7 6,1 9,7 16 9 34 19 ZW 1010,9 18 0 0,0
12.12.2017 22:00:00 7,3 4,3 5,6 6,1 9,7 13 7 31 17 ZW 1012,0 20 0 0,0
12.12.2017 21:00:00 6,5 3,6 5,5 6,0 9,7 11 6 23 13 ZZW 1012,8 10 0 0,0
12.12.2017 20:00:00 6,2 3,7 5,5 6,0 9,7 13 7 22 12 ZZW 1013,3 10 0 0,0
12.12.2017 19:00:00 6,4 3,7 5,4 6,0 9,7 11 6 21 11 ZZW 1013,3 20 0 0,0
12.12.2017 18:00:00 6,5 3,8 5,8 5,9 9,7 9 5 20 11 ZW 1012,4 10 0 0,0
12.12.2017 17:00:00 6,9 3,9 6,4 5,8 9,7 10 5 20 11 ZW 1013,3 20 5 0,0
12.12.2017 16:00:00 7,3 4,1 7,1 5,6 9,7 11 6 23 12 ZW 1012,9 10 10 0,0
12.12.2017 15:00:00 7,5 4,1 7,8 5,5 9,7 12 7 24 13 WZW 1012,9 20 29 0,0
12.12.2017 14:00:00 7,6 3,8 8,0 5,4 9,7 11 6 18 10 WZW 1012,5 10 41 0,0
12.12.2017 13:00:00 7,1 3,5 7,3 5,3 9,7 11 6 22 12 W 1012,6 20 49 0,0
12.12.2017 12:00:00 6,5 3,6 6,8 5,2 9,7 15 8 22 12 W 1013,0 10 60 0,0
12.12.2017 11:00:00 5,5 3,3 2,8 5,2 9,7 5 3 18 10 W 1012,1 10 34 0,0
12.12.2017 10:00:00 4,1 2,8 1,4 5,2 9,7 15 8 22 12 NW 1011,8 17 31 0,0
12.12.2017 09:00:00 3,5 1,9 0,8 5,2 9,7 9 5 19 11 W 1010,9 10 0 0,0
12.12.2017 08:00:00 2,5 1,3 0,7 5,3 9,8 15 8 21 11 W 1009,9 10 0 0,0
12.12.2017 07:00:00 2,7 1,7 0,9 5,3 9,8 17 9 27 15 W 1008,9 20 0 0,0
12.12.2017 06:00:00 2,1 1,2 0,7 5,4 9,8 15 8 21 11 W 1008,2 20 0 0,4
12.12.2017 05:00:00 2,1 1,1 1,2 5,5 9,8 16 9 24 13 W 1007,3 20 0 0,0
12.12.2017 04:00:00 2,1 1,1 1,1 5,5 9,8 17 9 24 13 W 1006,6 20 0 0,0
12.12.2017 03:00:00 2,7 1,4 0,1 5,6 9,8 18 10 25 13 WNW 1005,6 20 0 0,0
12.12.2017 02:00:00 1,2 0,2 -0,3 5,7 9,8 14 8 19 10 W 1004,2 20 0 0,0
12.12.2017 01:00:00 1,6 -0,8 -0,8 5,8 9,8 14 8 20 11 W 1003,7 20 0 0,0
12.12.2017 00:00:00 0,7 -1,7 -1,6 6,0 9,8 12 6 14 8 WNW 1002,8 20 0 0,0
11.12.2017 23:00:00 1,1 -1,1 -1,2 6,1 9,8 11 6 17 9 WNW 1002,3 20 0 0,0
11.12.2017 22:00:00 1,8 -0,3 0,5 6,2 9,8 13 7 20 11 NW 1001,3 10 0 0,0
11.12.2017 21:00:00 2,4 -0,4 1,1 6,4 9,8 15 8 21 12 NW 999,1 10 0 0,0
11.12.2017 20:00:00 3,8 -0,2 2,6 6,5 9,8 15 8 32 17 NNW 997,5 10 0 0,0
11.12.2017 19:00:00 4,9 0,7 3,3 6,6 9,9 18 10 48 26 N 995,4 10 0 0,0
11.12.2017 18:00:00 5,0 0,6 4,0 6,7 9,9 29 16 49 27 N 993,4 10 0 0,0
11.12.2017 17:00:00 4,6 3,3 3,7 6,7 9,9 22 12 57 31 N 991,2 10 0 1,0
11.12.2017 16:00:00 4,8 3,3 4,3 6,7 9,9 24 13 56 31 N 989,2 10 0 0,6
11.12.2017 15:00:00 5,1 2,9 4,5 6,8 9,9 35 19 61 33 NNO 987,1 10 0 1,0
11.12.2017 14:00:00 5,1 3,9 4,6 6,8 10,0 31 17 65 35 N 985,1 10 0 1,5
11.12.2017 13:00:00 5,3 4,1 4,9 6,8 10,0 31 17 57 31 N 983,2 9 0 0,6
11.12.2017 12:00:00 5,3 4,3 4,8 6,8 10,0 29 16 56 31 N 980,9 9 0 1,0
11.12.2017 11:00:00 5,1 4,2 4,6 6,9 10,0 29 16 57 31 N 978,8 10 0 1,8
11.12.2017 10:00:00 5,1 4,2 4,2 6,9 10,0 34 18 77 42 N 976,4 10 0 2,4
11.12.2017 09:00:00 5,2 4,3 4,6 7,0 10,1 44 24 83 45 N 973,5 6 0 4,0
11.12.2017 08:00:00 5,0 4,4 4,5 7,1 10,1 41 22 69 37 NNO 970,3 6 0 4,3

tt = temperatuur
td = dauwpunt
tt 5cm = temperatuur 5cm
tt -20cm = temperatuur -20cm
tt -100cm = temperatuur -100cm
ff = windsnelheid
fx = windstoten
dd = windrichting
ppp = luchtdruk
vv = zicht
sd = Zonneschijnduur
rr = neerslag

Weerstations in de omgeving